User: anonymous   Login
Location: DARK SKY Beskydy - Park tmavé oblohy, www.darkskybeskydy.cz
(49.4926°N, 18.5016°E)
Time: 16:38:49
(UTC+02:00)
Language:

A-11 Canister half - Orbit

View from above orbital plane
View from above orbital plane
View from above satellite
View from above satellite

Ground track
Ground track

The orbit data is extracted from the following two-line orbital elements,

1 00051U 60009C   24198.73417207 -.00000036  00000-0  46825-3 0  9994
2 00051  47.2144  56.7394 0106437 274.2781  84.5851 12.18329676845773
Epoch (UTC): 16 July 2024 17:37:12
Eccentricity: 0.0106437
inclination: 47.2144°
perigee height: 1515 km
apogee height: 1685 km
right ascension of ascending node: 56.7394°
argument of perigee: 274.2781°
revolutions per day: 12.18329676
mean anomaly at epoch: 84.5851°
orbit number at epoch: 84577

The dashed part of the orbit path shows where the satellite is in the earth's shadow,  

DLR